Location: D�rnast
(49.6426°N, 11.9755°E)
Time: 01:55:46
(UTC+00:00)

BlueWalker 3 - Pass Details

Date: 30 November 2022
Orbit: 499 x 517 km, 53.2° (Epoch: 26 January)

Event Time Altitude Azimuth Distance (km) Brightness Sun altitude
Rises 16:25:55 0° 257° (WSW) 2,631 7.7 -11.0°
Reaches altitude 10° 16:28:08 10° 260° (W) 1,742 6.2 -11.3°
Maximum altitude 16:32:04 66° 343° (NNW) 562 2.1 -11.9°
Enters shadow 16:34:43 19° 63° (ENE) 1,252 3.3 -12.3°
